SCP
-0 -0 -0 0 0 0 0 0 0 0 0 0 0 0 0 0 0 0 0 0 0 0 0 0 0 -0 0 0 0 0 0 0 0 0 0 0 0 0 0 0 0 0 0
-0 -0 -0 0 0 0 0 0 0 0 0 0 0 0 0 -0 -0 0 0 0 0 0 0 0 0 0 0 0 0 0 0 0 0 0 0 0 0 0 0 0 0 0 0
-0 -0 0 0 0 0 0 0 0 0 0 0 0 0 0 0 0 0 0 0 0 0 0 0 0 0 0 0 0 0 0 0 0 0 0 0 0 0 0 0 0 0 0
-0 -0 -0 0 0 0 0 0 0 0 0 0 0 0 0 0 0 0 0 0 0 0 0 0 0 0 0 0 0 0 0 0 0 0 0 0 0 0 0 0 0 0 0
0 0 0 -0 0 0 0 0 0 0 0 0 0 0 0 0 0 0 0 0 0 0 0 0 0 0 0 0 0 0 0 0 0 0 0 0 0 0 0 0 0 0 0
-0 -0 -0 0 0 0 0 0 0 0 0 0 0 0 0 0 0 0 0 0 0 0 0 0 0 0 0 0 0 0 0 0 0 0 0 0 0 0 0 0 0 0 0
0 0 0 0 0 0 0 0 0 -0 -0 0 0 0 0 0 0 0 0 0 0 0 0 0 0 0 0 0 0 0 0 0 0 0 0 0 0 0 0 0 0 0 0
0 0 0 0 0 -0 -0 -0 0 -0 0 0 0 0 0 0 0 0 0 0 0 0 0 0 0 0 0 0 0 0 0 0 0 0 0 0 0 0 0 0 0 0 0
0 0 0 0 0 0 0 0 0 0 0 0 0 0 0 0 0 0 0 0 0 0 0 0 0 0 0 0 0 0 0 0 0 0 0 0 0 0 0 0 0 0 0
0 0 0 0 0 0 0 0 0 0 0 0 0 0 0 0 0 0 0 0 0 0 0 0 0 0 0 0 0 0 0 0 0 0 0 0 0 0 0 0 0 0 0
0 0 0 0 0 0 0 0 0 0 0 0 0 0 0 0 0 0 0 0 0 0 0 0 0 0 0 0 0 0 0 0 0 0 0 0 0 0 0 0 0 0 0
0 0 0 0 0 0 0 0 0 0 0 0 0 0 0 0 0 0 0 0 0 0 0 0 0 0 0 0 0 0 0 0 0 0 0 0 0 0 0 0 0 0 0
0 0 0 0 0 0 0 0 0 0 0 0 0 0 0 0 0 0 0 0 0 0 0 0 0 0 0 0 0 0 0 0 0 0 0 0 0 0 0 0 0 -0 -0
0 0 0 0 0 0 0 0 0 0 0 0 0 0 0 0 0 0 0 0 0 0 0 0 0 0 0 0 0 0 0 0 0 0 0 0 0 -0 -0 0 -0 -0 0
0 0 0 0 0 0 0 0 0 0 0 0 0 0 0 0 0 0 0 0 0 0 0 0 0 0 0 0 0 0 0 0 0 0 0 0 -0 -0 0 0 0 0 0
0 0 0 0 0 0 0 0 0 0 0 0 0 0 0 0 0 0 0 0 0 -0 -0 0 0 0 0 0 0 0 0 0 0 0 0 0 0 0 0 0 0 0 0
0 0 0 0 0 0 0 0 0 0 0 0 0 0 0 0 0 0 0 0 0 0 0 0 0 0 0 0 0 0 0 0 0 0 0 0 0 0 0 0 0 0 0
0 0 0 0 0 0 0 0 0 0 0 0 0 0 0 0 0 0 0 0 0 0 0 0 0 0 0 0 0 0 0 0 0 0 0 0 0 0 0 0 0 0 0
0 0 0 0 0 0 0 0 0 0 0 0 0 0 0 0 0 0 0 0 0 0 0 0 0 0 0 0 0 0 0 0 0 0 0 0 0 0 0 0 0 0 0
0 0 0 0 0 0 0 0 0 0 0 0 0 0 0 0 0 0 0 0 0 0 0 0 0 0 0 0 0 0 0 0 0 0 0 0 0 0 0 0 0 0 0
0 0 0 0 0 0 0 0 0 0 0 0 0 0 0 0 0 0 0 0 0 0 0 0 0 0 0 0 0 0 0 0 0 0 0 0 0 0 0 0 0 0 0
0 0 0 0 0 0 0 0 0 0 0 0 0 0 0 0 0 0 0 0 0 0 0 0 0 0 0 0 0 0 0 0 0 0 0 0 0 0 0 0 0 0 0
0 0 0 0 0 0 0 0 0 0 0 0 0 0 0 0 0 0 0 0 0 0 0 0 0 0 0 0 0 0 0 0 0 0 0 0 0 0 0 0 0 0 0
0 0 0 0 0 0 0 0 0 0 0 0 0 0 0 0 0 0 0 0 0 0 0 0 0 0 0 0 0 0 0 0 0 0 0 0 0 0 0 0 0 0 0
0 0 0 0 0 0 0 0 0 0 0 0 0 0 -0 0 0 0 0 0 0 0 0 0 0 0 0 0 0 0 0 0 0 0 0 0 0 0 0 0 0 0 0
0 0 0 0 0 0 0 0 0 0 0 0 0 0 -0 0 0 0 0 0 0 0 0 0 0 0 0 0 0 0 0 0 0 0 0 0 0 0 0 0 0 0 0
Wind_Speed_500mb
96 100 99 98 92 81 73 68 68 66 59 61 67 60 46 41 34 34 36 33 31 29 29 28 28 25 20 17 13 9 6 11 10 10 5 6 3 5 9 12 17 19 22
96 92 90 85 82 72 69 60 55 47 45 45 43 39 37 32 31 31 31 29 26 23 24 20 20 17 11 10 7 6 5 6 10 14 11 7 2 3 5 9 14 16 18
89 88 83 76 74 69 57 57 51 47 45 42 39 39 39 35 33 34 31 30 27 24 23 19 19 16 14 14 12 10 8 6 1 6 8 7 4 4 5 9 11 13 16
75 81 81 75 71 65 59 57 55 52 50 46 43 41 39 35 34 32 29 27 26 23 21 18 17 16 17 15 14 14 12 9 7 7 8 7 4 0 4 7 6 7 12
65 68 70 65 63 61 62 60 55 53 46 40 37 35 30 27 30 26 22 21 21 19 17 15 15 14 12 11 11 10 8 6 4 2 2 4 3 2 3 6 7 5 12
48 47 45 41 46 51 49 45 45 43 34 29 28 26 23 22 23 21 19 18 18 16 14 14 14 10 9 8 8 7 5 4 1 2 2 3 1 2 3 3 6 9 8
40 40 37 34 32 30 23 28 33 32 23 22 21 19 18 17 17 17 16 16 17 17 17 16 16 15 14 12 10 8 6 4 3 3 2 0 2 1 1 4 8 13 17
29 29 27 25 21 21 19 22 18 15 18 20 19 17 16 13 13 13 14 15 16 16 16 16 16 14 11 10 11 9 8 7 3 2 2 4 3 2 3 5 10 16 17
25 26 26 25 25 25 24 22 22 20 19 19 19 17 15 12 11 12 13 14 15 14 15 15 15 13 10 8 9 10 9 6 5 3 4 5 4 4 5 6 10 16 20
23 24 25 25 23 22 22 24 23 20 18 17 16 16 15 13 11 11 12 13 13 13 13 14 15 14 11 7 6 5 6 4 6 5 6 7 8 8 10 14 16 15 9
28 27 27 27 27 27 24 20 18 17 17 15 13 11 12 12 11 11 12 12 12 12 14 18 19 17 12 9 5 1 1 2 4 5 6 8 10 12 16 18 19 21 25
26 27 26 25 24 23 22 22 21 17 15 16 18 19 18 18 17 15 15 15 14 11 15 18 20 22 18 14 9 5 3 6 6 6 7 10 12 16 19 19 20 21 25
33 32 29 28 27 27 25 21 19 20 20 21 19 19 19 16 13 11 10 10 8 8 11 14 17 21 18 15 12 9 8 6 7 7 8 11 15 21 20 18 19 21 25
37 36 36 34 33 32 32 30 26 23 22 21 20 17 14 10 9 6 6 7 9 10 11 9 10 14 13 10 9 8 7 7 7 9 10 12 18 22 19 17 17 20 22
37 39 37 36 35 36 35 31 30 27 23 21 19 13 9 8 7 5 7 7 9 12 10 5 5 9 8 6 6 6 7 7 8 9 10 14 21 22 19 17 16 15 17
38 42 41 40 38 36 34 32 29 26 20 15 14 9 9 11 6 5 5 6 8 8 6 5 6 6 4 3 4 6 7 8 8 8 10 16 22 20 15 14 13 14 18
40 45 46 43 40 39 35 29 23 21 17 12 4 8 9 9 1 3 6 8 8 5 3 5 3 3 2 3 6 7 8 8 8 7 10 17 21 18 13 10 10 13 19
43 46 49 47 42 37 32 27 24 20 17 14 11 11 16 15 8 4 8 8 5 4 4 3 2 1 4 6 7 7 7 7 6 6 9 16 19 15 10 6 7 12 19
45 48 50 47 43 37 29 28 26 24 19 13 9 17 22 18 18 9 8 8 6 3 2 1 1 3 6 7 7 7 7 6 5 6 9 16 18 16 10 3 4 10 17
44 46 46 42 38 33 27 24 24 24 20 15 12 15 17 20 22 15 15 11 8 4 1 1 3 5 7 8 9 8 7 6 4 6 9 15 16 15 10 5 4 10 16
41 43 42 38 33 28 26 25 24 23 22 19 14 15 13 13 15 15 14 14 11 7 5 4 6 8 8 8 9 8 7 5 5 6 9 13 14 13 10 6 6 11 17
41 40 38 33 28 26 25 24 25 24 22 20 16 15 17 17 17 17 16 13 10 9 7 7 9 11 11 11 10 8 6 5 6 7 9 12 13 11 8 6 7 11 17
35 33 33 28 24 23 22 23 24 23 22 20 20 19 18 17 16 16 15 12 10 9 9 10 11 12 12 11 10 9 8 6 6 6 8 10 10 9 6 5 7 12 17
27 28 27 24 21 20 19 19 20 22 24 22 20 19 17 16 15 13 12 11 10 9 10 11 12 12 11 11 9 8 6 6 5 5 6 7 7 6 5 4 7 11 16
24 22 21 20 19 18 18 18 17 17 18 20 20 20 18 16 14 11 10 8 8 8 10 11 11 11 10 9 7 6 6 5 3 3 4 5 5 4 3 4 7 10 14
19 18 17 17 18 18 18 18 18 19 19 18 19 19 18 16 13 11 8 5 4 6 7 9 9 8 7 7 6 6 5 4 3 3 2 3 4 3 2 4 6 9 11
Wind_Direction_500mb
84 94 94 94 97 97 97 97 95 97 92 90 86 82 86 88 89 85 85 84 83 83 84 84 93 89 89 89 86 103 156 200 192 158 205 198 271 333 359 3 4 1 359
69 75 78 85 84 84 94 85 90 89 89 91 94 94 91 86 85 83 80 76 69 66 68 70 69 71 75 84 89 98 123 176 194 187 178 194 190 1 11 5 2 359 358
66 68 70 70 74 77 84 85 84 87 84 85 89 90 86 81 77 74 72 75 74 69 68 64 70 64 62 53 52 48 55 66 131 179 173 158 121 52 3 352 352 360 3
66 68 70 70 69 70 71 73 77 77 76 74 72 72 76 76 73 69 67 66 67 64 62 61 62 58 53 48 44 46 48 53 84 118 133 135 128 18 330 341 351 21 28
63 62 66 69 67 64 59 57 57 52 56 63 66 64 64 69 69 65 61 60 60 58 53 50 50 48 45 39 36 41 37 37 54 94 178 178 214 268 313 7 5 45 58
79 78 76 67 61 59 58 52 46 40 40 41 45 47 42 44 55 52 47 43 48 47 41 36 39 37 36 31 31 30 27 22 331 204 207 227 246 2 16 35 63 86 91
74 76 75 74 65 59 44 20 8 18 6 16 28 33 34 35 39 35 31 25 25 25 22 18 16 10 8 9 13 15 12 1 340 1 350 346 77 105 78 91 117 107 85
51 50 48 42 38 41 33 17 15 23 2 3 9 14 19 18 25 21 20 15 15 16 16 17 17 12 11 352 351 353 1 14 47 55 72 114 117 124 123 142 143 126 94
11 9 7 6 7 5 358 359 359 2 355 351 354 359 1 12 21 16 10 9 9 8 12 14 16 16 16 360 347 343 358 51 84 101 123 131 123 130 138 122 138 150 87
3 359 356 356 355 355 356 353 351 349 348 351 353 355 2 13 23 14 2 357 2 7 12 15 19 24 16 5 343 341 348 44 121 118 113 107 113 111 104 109 98 103 122
349 347 350 352 353 354 356 354 352 351 353 354 359 5 5 5 17 22 17 15 17 14 13 16 11 14 10 8 2 169 281 81 113 127 115 120 124 119 120 111 101 87 76
352 349 349 350 354 356 356 352 349 350 352 353 352 355 359 3 11 18 19 18 10 4 10 20 21 24 18 17 22 24 56 114 130 128 129 133 132 137 129 114 97 81 66
350 346 345 346 345 343 341 340 337 331 329 331 337 341 345 350 354 3 8 8 360 5 15 24 32 29 25 31 35 48 62 84 109 125 138 137 137 139 124 110 92 71 59
348 344 339 335 333 331 328 327 326 324 323 321 320 322 325 323 331 350 354 355 350 360 4 10 31 28 35 51 66 78 93 111 125 141 143 137 140 137 121 101 80 65 52
341 338 333 330 326 326 323 321 319 318 320 319 315 309 301 297 319 335 351 9 8 357 353 352 34 34 44 54 78 101 111 123 135 142 141 143 144 133 121 104 88 71 55
331 333 332 329 325 324 322 319 317 315 318 322 321 313 282 279 288 305 332 347 344 335 341 342 12 11 41 74 103 117 125 136 143 146 146 150 149 140 126 110 85 58 40
323 327 329 328 325 324 324 324 320 317 317 310 314 314 300 302 314 343 348 332 311 308 249 273 312 357 71 114 142 147 151 150 147 150 156 159 158 149 132 107 73 43 29
317 321 325 325 325 324 324 324 323 320 313 306 271 244 279 291 299 314 330 339 343 333 327 322 319 131 146 152 150 150 151 152 151 156 164 167 165 160 149 114 58 29 22
314 318 322 322 323 323 324 326 327 324 316 301 249 237 250 271 276 285 305 328 327 346 6 37 128 152 155 153 149 156 165 166 163 168 175 177 177 178 170 154 20 14 13
313 317 320 323 324 323 323 327 328 324 320 306 286 269 268 266 275 279 287 297 305 311 282 193 187 178 168 167 166 166 172 176 177 182 185 185 188 190 192 220 318 354 1
314 319 321 323 324 326 329 332 334 334 328 319 309 293 285 282 289 285 285 287 291 285 255 223 200 185 182 183 179 176 184 189 193 195 194 192 195 199 209 242 311 345 353
319 321 322 324 326 329 332 338 340 340 336 329 323 307 299 298 296 293 287 284 281 273 246 221 207 194 187 183 183 187 197 210 208 210 206 202 204 209 221 257 312 339 349
321 324 324 325 327 331 336 340 343 345 345 340 337 327 314 305 300 296 291 283 264 241 227 215 208 201 193 193 191 192 199 213 222 224 218 209 207 209 228 272 320 337 348
326 326 327 327 327 334 338 343 348 350 351 350 346 340 333 325 314 304 293 283 266 244 222 208 205 203 199 195 195 202 213 219 220 212 206 206 202 206 232 285 326 338 348
328 330 331 328 331 334 337 340 346 350 356 357 355 352 349 344 335 320 302 282 258 231 214 207 203 201 200 198 198 202 195 195 200 190 189 194 196 203 246 303 332 344 347
332 336 332 328 329 332 336 340 344 345 351 356 356 357 355 351 347 338 323 295 252 228 212 203 199 197 199 199 189 185 184 186 195 201 192 188 199 212 270 316 333 340 344
Wind_Speed_850mb
96 100 99 98 92 81 73 68 68 66 59 61 67 60 46 41 34 34 36 33 31 29 29 28 28 25 20 17 13 9 6 11 10 10 5 6 3 5 9 12 17 19 22
96 92 90 85 82 72 69 60 55 47 45 45 43 39 37 32 31 31 31 29 26 23 24 20 20 17 11 10 7 6 5 6 10 14 11 7 2 3 5 9 14 16 18
89 88 83 76 74 69 57 57 51 47 45 42 39 39 39 35 33 34 31 30 27 24 23 19 19 16 14 14 12 10 8 6 1 6 8 7 4 4 5 9 11 13 16
75 81 81 75 71 65 59 57 55 52 50 46 43 41 39 35 34 32 29 27 26 23 21 18 17 16 17 15 14 14 12 9 7 7 8 7 4 0 4 7 6 7 12
65 68 70 65 63 61 62 60 55 53 46 40 37 35 30 27 30 26 22 21 21 19 17 15 15 14 12 11 11 10 8 6 4 2 2 4 3 2 3 6 7 5 12
48 47 45 41 46 51 49 45 45 43 34 29 28 26 23 22 23 21 19 18 18 16 14 14 14 10 9 8 8 7 5 4 1 2 2 3 1 2 3 3 6 9 8
40 40 37 34 32 30 23 28 33 32 23 22 21 19 18 17 17 17 16 16 17 17 17 16 16 15 14 12 10 8 6 4 3 3 2 0 2 1 1 4 8 13 17
29 29 27 25 21 21 19 22 18 15 18 20 19 17 16 13 13 13 14 15 16 16 16 16 16 14 11 10 11 9 8 7 3 2 2 4 3 2 3 5 10 16 17
25 26 26 25 25 25 24 22 22 20 19 19 19 17 15 12 11 12 13 14 15 14 15 15 15 13 10 8 9 10 9 6 5 3 4 5 4 4 5 6 10 16 20
23 24 25 25 23 22 22 24 23 20 18 17 16 16 15 13 11 11 12 13 13 13 13 14 15 14 11 7 6 5 6 4 6 5 6 7 8 8 10 14 16 15 9
28 27 27 27 27 27 24 20 18 17 17 15 13 11 12 12 11 11 12 12 12 12 14 18 19 17 12 9 5 1 1 2 4 5 6 8 10 12 16 18 19 21 25
26 27 26 25 24 23 22 22 21 17 15 16 18 19 18 18 17 15 15 15 14 11 15 18 20 22 18 14 9 5 3 6 6 6 7 10 12 16 19 19 20 21 25
33 32 29 28 27 27 25 21 19 20 20 21 19 19 19 16 13 11 10 10 8 8 11 14 17 21 18 15 12 9 8 6 7 7 8 11 15 21 20 18 19 21 25
37 36 36 34 33 32 32 30 26 23 22 21 20 17 14 10 9 6 6 7 9 10 11 9 10 14 13 10 9 8 7 7 7 9 10 12 18 22 19 17 17 20 22
37 39 37 36 35 36 35 31 30 27 23 21 19 13 9 8 7 5 7 7 9 12 10 5 5 9 8 6 6 6 7 7 8 9 10 14 21 22 19 17 16 15 17
38 42 41 40 38 36 34 32 29 26 20 15 14 9 9 11 6 5 5 6 8 8 6 5 6 6 4 3 4 6 7 8 8 8 10 16 22 20 15 14 13 14 18
40 45 46 43 40 39 35 29 23 21 17 12 4 8 9 9 1 3 6 8 8 5 3 5 3 3 2 3 6 7 8 8 8 7 10 17 21 18 13 10 10 13 19
43 46 49 47 42 37 32 27 24 20 17 14 11 11 16 15 8 4 8 8 5 4 4 3 2 1 4 6 7 7 7 7 6 6 9 16 19 15 10 6 7 12 19
45 48 50 47 43 37 29 28 26 24 19 13 9 17 22 18 18 9 8 8 6 3 2 1 1 3 6 7 7 7 7 6 5 6 9 16 18 16 10 3 4 10 17
44 46 46 42 38 33 27 24 24 24 20 15 12 15 17 20 22 15 15 11 8 4 1 1 3 5 7 8 9 8 7 6 4 6 9 15 16 15 10 5 4 10 16
41 43 42 38 33 28 26 25 24 23 22 19 14 15 13 13 15 15 14 14 11 7 5 4 6 8 8 8 9 8 7 5 5 6 9 13 14 13 10 6 6 11 17
41 40 38 33 28 26 25 24 25 24 22 20 16 15 17 17 17 17 16 13 10 9 7 7 9 11 11 11 10 8 6 5 6 7 9 12 13 11 8 6 7 11 17
35 33 33 28 24 23 22 23 24 23 22 20 20 19 18 17 16 16 15 12 10 9 9 10 11 12 12 11 10 9 8 6 6 6 8 10 10 9 6 5 7 12 17
27 28 27 24 21 20 19 19 20 22 24 22 20 19 17 16 15 13 12 11 10 9 10 11 12 12 11 11 9 8 6 6 5 5 6 7 7 6 5 4 7 11 16
24 22 21 20 19 18 18 18 17 17 18 20 20 20 18 16 14 11 10 8 8 8 10 11 11 11 10 9 7 6 6 5 3 3 4 5 5 4 3 4 7 10 14
19 18 17 17 18 18 18 18 18 19 19 18 19 19 18 16 13 11 8 5 4 6 7 9 9 8 7 7 6 6 5 4 3 3 2 3 4 3 2 4 6 9 11
Wind_Direction_850mb
84 94 94 94 97 97 97 97 95 97 92 90 86 82 86 88 89 85 85 84 83 83 84 84 93 89 89 89 86 103 156 200 192 158 205 198 271 333 359 3 4 1 359
69 75 78 85 84 84 94 85 90 89 89 91 94 94 91 86 85 83 80 76 69 66 68 70 69 71 75 84 89 98 123 176 194 187 178 194 190 1 11 5 2 359 358
66 68 70 70 74 77 84 85 84 87 84 85 89 90 86 81 77 74 72 75 74 69 68 64 70 64 62 53 52 48 55 66 131 179 173 158 121 52 3 352 352 360 3
66 68 70 70 69 70 71 73 77 77 76 74 72 72 76 76 73 69 67 66 67 64 62 61 62 58 53 48 44 46 48 53 84 118 133 135 128 18 330 341 351 21 28
63 62 66 69 67 64 59 57 57 52 56 63 66 64 64 69 69 65 61 60 60 58 53 50 50 48 45 39 36 41 37 37 54 94 178 178 214 268 313 7 5 45 58
79 78 76 67 61 59 58 52 46 40 40 41 45 47 42 44 55 52 47 43 48 47 41 36 39 37 36 31 31 30 27 22 331 204 207 227 246 2 16 35 63 86 91
74 76 75 74 65 59 44 20 8 18 6 16 28 33 34 35 39 35 31 25 25 25 22 18 16 10 8 9 13 15 12 1 340 1 350 346 77 105 78 91 117 107 85
51 50 48 42 38 41 33 17 15 23 2 3 9 14 19 18 25 21 20 15 15 16 16 17 17 12 11 352 351 353 1 14 47 55 72 114 117 124 123 142 143 126 94
11 9 7 6 7 5 358 359 359 2 355 351 354 359 1 12 21 16 10 9 9 8 12 14 16 16 16 360 347 343 358 51 84 101 123 131 123 130 138 122 138 150 87
3 359 356 356 355 355 356 353 351 349 348 351 353 355 2 13 23 14 2 357 2 7 12 15 19 24 16 5 343 341 348 44 121 118 113 107 113 111 104 109 98 103 122
349 347 350 352 353 354 356 354 352 351 353 354 359 5 5 5 17 22 17 15 17 14 13 16 11 14 10 8 2 169 281 81 113 127 115 120 124 119 120 111 101 87 76
352 349 349 350 354 356 356 352 349 350 352 353 352 355 359 3 11 18 19 18 10 4 10 20 21 24 18 17 22 24 56 114 130 128 129 133 132 137 129 114 97 81 66
350 346 345 346 345 343 341 340 337 331 329 331 337 341 345 350 354 3 8 8 360 5 15 24 32 29 25 31 35 48 62 84 109 125 138 137 137 139 124 110 92 71 59
348 344 339 335 333 331 328 327 326 324 323 321 320 322 325 323 331 350 354 355 350 360 4 10 31 28 35 51 66 78 93 111 125 141 143 137 140 137 121 101 80 65 52
341 338 333 330 326 326 323 321 319 318 320 319 315 309 301 297 319 335 351 9 8 357 353 352 34 34 44 54 78 101 111 123 135 142 141 143 144 133 121 104 88 71 55
331 333 332 329 325 324 322 319 317 315 318 322 321 313 282 279 288 305 332 347 344 335 341 342 12 11 41 74 103 117 125 136 143 146 146 150 149 140 126 110 85 58 40
323 327 329 328 325 324 324 324 320 317 317 310 314 314 300 302 314 343 348 332 311 308 249 273 312 357 71 114 142 147 151 150 147 150 156 159 158 149 132 107 73 43 29
317 321 325 325 325 324 324 324 323 320 313 306 271 244 279 291 299 314 330 339 343 333 327 322 319 131 146 152 150 150 151 152 151 156 164 167 165 160 149 114 58 29 22
314 318 322 322 323 323 324 326 327 324 316 301 249 237 250 271 276 285 305 328 327 346 6 37 128 152 155 153 149 156 165 166 163 168 175 177 177 178 170 154 20 14 13
313 317 320 323 324 323 323 327 328 324 320 306 286 269 268 266 275 279 287 297 305 311 282 193 187 178 168 167 166 166 172 176 177 182 185 185 188 190 192 220 318 354 1
314 319 321 323 324 326 329 332 334 334 328 319 309 293 285 282 289 285 285 287 291 285 255 223 200 185 182 183 179 176 184 189 193 195 194 192 195 199 209 242 311 345 353
319 321 322 324 326 329 332 338 340 340 336 329 323 307 299 298 296 293 287 284 281 273 246 221 207 194 187 183 183 187 197 210 208 210 206 202 204 209 221 257 312 339 349
321 324 324 325 327 331 336 340 343 345 345 340 337 327 314 305 300 296 291 283 264 241 227 215 208 201 193 193 191 192 199 213 222 224 218 209 207 209 228 272 320 337 348
326 326 327 327 327 334 338 343 348 350 351 350 346 340 333 325 314 304 293 283 266 244 222 208 205 203 199 195 195 202 213 219 220 212 206 206 202 206 232 285 326 338 348
328 330 331 328 331 334 337 340 346 350 356 357 355 352 349 344 335 320 302 282 258 231 214 207 203 201 200 198 198 202 195 195 200 190 189 194 196 203 246 303 332 344 347
332 336 332 328 329 332 336 340 344 345 351 356 356 357 355 351 347 338 323 295 252 228 212 203 199 197 199 199 189 185 184 186 195 201 192 188 199 212 270 316 333 340 344